����������;��������(kWh)
2018-11-05 00:00;77,6
2018-11-05 00:15;81,4
2018-11-05 00:30;82,1
2018-11-05 00:45;83,15
2018-11-05 01:00;85,35
2018-11-05 01:15;85,6
2018-11-05 01:30;86,1
2018-11-05 01:45;85,15
2018-11-05 02:00;86,45
2018-11-05 02:15;78,5
2018-11-05 02:30;77
2018-11-05 02:45;78,1
2018-11-05 03:00;78,1
2018-11-05 03:15;79,9
2018-11-05 03:30;79,05
2018-11-05 03:45;79,95
2018-11-05 04:00;78,9
2018-11-05 04:15;79,05
2018-11-05 04:30;77,55
2018-11-05 04:45;78,5
2018-11-05 05:00;79,45
2018-11-05 05:15;78,55
2018-11-05 05:30;77,9
2018-11-05 05:45;79,6
2018-11-05 06:00;78,9
2018-11-05 06:15;77,8
2018-11-05 06:30;76
2018-11-05 06:45;74,2
2018-11-05 07:00;74,6
2018-11-05 07:15;77,4
2018-11-05 07:30;78,7
2018-11-05 07:45;81,05
2018-11-05 08:00;85,15
2018-11-05 08:15;90,3
2018-11-05 08:30;91,8
2018-11-05 08:45;95,45
2018-11-05 09:00;104,85
2018-11-05 09:15;107
2018-11-05 09:30;109,6
2018-11-05 09:45;108,6
2018-11-05 10:00;113,9
2018-11-05 10:15;120,5
2018-11-05 10:30;122,05
2018-11-05 10:45;124,3
2018-11-05 11:00;127,7
2018-11-05 11:15;132,85
2018-11-05 11:30;141,25
2018-11-05 11:45;141,15
2018-11-05 12:00;135,05
2018-11-05 12:15;134,9
2018-11-05 12:30;135,4
2018-11-05 12:45;139,6
2018-11-05 13:00;143
2018-11-05 13:15;148,1
2018-11-05 13:30;147,7
2018-11-05 13:45;145,15
2018-11-05 14:00;146,7
2018-11-05 14:15;140,85
2018-11-05 14:30;144,95
2018-11-05 14:45;141,9
2018-11-05 15:00;137,3
2018-11-05 15:15;136,1
2018-11-05 15:30;132,05
2018-11-05 15:45;130,45
2018-11-05 16:00;128,3
2018-11-05 16:15;124,95
2018-11-05 16:30;123,95
2018-11-05 16:45;123
2018-11-05 17:00;119,85
2018-11-05 17:15;115,85
2018-11-05 17:30;120,05
2018-11-05 17:45;124,1
2018-11-05 18:00;123,3
2018-11-05 18:15;122,1
2018-11-05 18:30;123,95
2018-11-05 18:45;124,3
2018-11-05 19:00;125,15
2018-11-05 19:15;120,55
2018-11-05 19:30;121,3
2018-11-05 19:45;119,1
2018-11-05 20:00;118,7
2018-11-05 20:15;112,4
2018-11-05 20:30;111,35
2018-11-05 20:45;107,15
2018-11-05 21:00;107,05
2018-11-05 21:15;103,4
2018-11-05 21:30;105,35
2018-11-05 21:45;93,5
2018-11-05 22:00;89,45
2018-11-05 22:15;88
2018-11-05 22:30;87,85
2018-11-05 22:45;84,75
2018-11-05 23:00;85,45
2018-11-05 23:15;83,3
2018-11-05 23:30;81,9
2018-11-05 23:45;84,4
2018-11-06 00:00;81,8
2018-11-06 00:15;82,5
2018-11-06 00:30;81,5
2018-11-06 00:45;81,3
2018-11-06 01:00;81,15
2018-11-06 01:15;81,55
2018-11-06 01:30;80,9
2018-11-06 01:45;79,1
2018-11-06 02:00;80,7
2018-11-06 02:15;80,8
2018-11-06 02:30;80,9
2018-11-06 02:45;79,9
2018-11-06 03:00;80,6
2018-11-06 03:15;80,9
2018-11-06 03:30;83,4
2018-11-06 03:45;82,55
2018-11-06 04:00;83,65
2018-11-06 04:15;80,55
2018-11-06 04:30;79,9
2018-11-06 04:45;80,45
2018-11-06 05:00;82,3
2018-11-06 05:15;79,4
2018-11-06 05:30;79,1
2018-11-06 05:45;79,3
2018-11-06 06:00;82,6
2018-11-06 06:15;79
2018-11-06 06:30;77,9
2018-11-06 06:45;77,6
2018-11-06 07:00;75,65
2018-11-06 07:15;80,05
2018-11-06 07:30;83,15
2018-11-06 07:45;87,65
2018-11-06 08:00;93,1
2018-11-06 08:15;95,15
2018-11-06 08:30;98,75
2018-11-06 08:45;107,45
2018-11-06 09:00;110,45
2018-11-06 09:15;119,1
2018-11-06 09:30;120,4
2018-11-06 09:45;121,4
2018-11-06 10:00;122,1
2018-11-06 10:15;130,65
2018-11-06 10:30;130,35
2018-11-06 10:45;126,7
2018-11-06 11:00;132,2
2018-11-06 11:15;135,2
2018-11-06 11:30;139,9
2018-11-06 11:45;138,15
2018-11-06 12:00;139,9
2018-11-06 12:15;143,35
2018-11-06 12:30;139,75
2018-11-06 12:45;143,1
2018-11-06 13:00;146,5
2018-11-06 13:15;148,4
2018-11-06 13:30;147,85
2018-11-06 13:45;147
2018-11-06 14:00;142,4
2018-11-06 14:15;142,1
2018-11-06 14:30;143,35
2018-11-06 14:45;146,15
2018-11-06 15:00;141,9
2018-11-06 15:15;137,7
2018-11-06 15:30;135
2018-11-06 15:45;131,7
2018-11-06 16:00;129,45
2018-11-06 16:15;126,75
2018-11-06 16:30;126,7
2018-11-06 16:45;125,4
2018-11-06 17:00;122,7
2018-11-06 17:15;120,4
2018-11-06 17:30;118,95
2018-11-06 17:45;124,1
2018-11-06 18:00;123,25
2018-11-06 18:15;126,3
2018-11-06 18:30;123,2
2018-11-06 18:45;124,65
2018-11-06 19:00;123,75
2018-11-06 19:15;120,8
2018-11-06 19:30;116,8
2018-11-06 19:45;115,05
2018-11-06 20:00;113,15
2018-11-06 20:15;107,35
2018-11-06 20:30;102,3
2018-11-06 20:45;101,1
2018-11-06 21:00;101,75
2018-11-06 21:15;100,35
2018-11-06 21:30;99,2
2018-11-06 21:45;98
2018-11-06 22:00;97,05
2018-11-06 22:15;92,3
2018-11-06 22:30;90,9
2018-11-06 22:45;93,1
2018-11-06 23:00;89,75
2018-11-06 23:15;83,85
2018-11-06 23:30;81,7
2018-11-06 23:45;87,7
2018-11-07 00:00;81,3
2018-11-07 00:15;80,1
2018-11-07 00:30;80,75
2018-11-07 00:45;81,4
2018-11-07 01:00;79,35
2018-11-07 01:15;78,4
2018-11-07 01:30;79,35
2018-11-07 01:45;77,65
2018-11-07 02:00;78,4
2018-11-07 02:15;77,1
2018-11-07 02:30;77,55
2018-11-07 02:45;78,85
2018-11-07 03:00;79,4
2018-11-07 03:15;81,4
2018-11-07 03:30;82,9
2018-11-07 03:45;80,5
2018-11-07 04:00;80,5
2018-11-07 04:15;81,15
2018-11-07 04:30;79,3
2018-11-07 04:45;79,2
2018-11-07 05:00;80,55
2018-11-07 05:15;81,2
2018-11-07 05:30;79,05
2018-11-07 05:45;77,7
2018-11-07 06:00;76,8
2018-11-07 06:15;77,9
2018-11-07 06:30;76,4
2018-11-07 06:45;75,55
2018-11-07 07:00;76
2018-11-07 07:15;76,9
2018-11-07 07:30;82,7
2018-11-07 07:45;84,5
2018-11-07 08:00;87,25
2018-11-07 08:15;89,85
2018-11-07 08:30;92,5
2018-11-07 08:45;97
2018-11-07 09:00;99,6
2018-11-07 09:15;104,5
2018-11-07 09:30;113,4
2018-11-07 09:45;118,7
2018-11-07 10:00;124
2018-11-07 10:15;125,55
2018-11-07 10:30;127,25
2018-11-07 10:45;137,5
2018-11-07 11:00;146,7
2018-11-07 11:15;147,3
2018-11-07 11:30;143,2
2018-11-07 11:45;139,3
2018-11-07 12:00;146,6
2018-11-07 12:15;144,45
2018-11-07 12:30;148,25
2018-11-07 12:45;145,55
2018-11-07 13:00;142,25
2018-11-07 13:15;147,1
2018-11-07 13:30;141,3
2018-11-07 13:45;143
2018-11-07 14:00;143,4
2018-11-07 14:15;137,9
2018-11-07 14:30;140,9
2018-11-07 14:45;140,05
2018-11-07 15:00;134,8
2018-11-07 15:15;131,75
2018-11-07 15:30;134,55
2018-11-07 15:45;129,3
2018-11-07 16:00;126,7
2018-11-07 16:15;126,3
2018-11-07 16:30;123,25
2018-11-07 16:45;123,1
2018-11-07 17:00;121
2018-11-07 17:15;121
2018-11-07 17:30;124,6
2018-11-07 17:45;127,15
2018-11-07 18:00;127,95
2018-11-07 18:15;124,2
2018-11-07 18:30;126,1
2018-11-07 18:45;125,35
2018-11-07 19:00;126,4
2018-11-07 19:15;120,75
2018-11-07 19:30;120,75
2018-11-07 19:45;118,95
2018-11-07 20:00;119,5
2018-11-07 20:15;111,8
2018-11-07 20:30;113,8
2018-11-07 20:45;111,3
2018-11-07 21:00;104,15
2018-11-07 21:15;101,45
2018-11-07 21:30;100,55
2018-11-07 21:45;97,75
2018-11-07 22:00;95,05
2018-11-07 22:15;90,75
2018-11-07 22:30;83,2
2018-11-07 22:45;82,35
2018-11-07 23:00;82,95
2018-11-07 23:15;82,7
2018-11-07 23:30;81
2018-11-07 23:45;82,8
2018-11-08 00:00;79,95
2018-11-08 00:15;82,1
2018-11-08 00:30;80,55
2018-11-08 00:45;79,6
2018-11-08 01:00;78,6
2018-11-08 01:15;80,3
2018-11-08 01:30;81,75
2018-11-08 01:45;80,6
2018-11-08 02:00;78,55
2018-11-08 02:15;78,25
2018-11-08 02:30;79,25
2018-11-08 02:45;81,45
2018-11-08 03:00;80,25
2018-11-08 03:15;80,35
2018-11-08 03:30;81,8
2018-11-08 03:45;83,6
2018-11-08 04:00;83,4
2018-11-08 04:15;80,1
2018-11-08 04:30;79,7
2018-11-08 04:45;80,15
2018-11-08 05:00;79,6
2018-11-08 05:15;78,75
2018-11-08 05:30;78,85
2018-11-08 05:45;81,1
2018-11-08 06:00;79,9
2018-11-08 06:15;78,95
2018-11-08 06:30;78,35
2018-11-08 06:45;78,9
2018-11-08 07:00;77,15
2018-11-08 07:15;76,4
2018-11-08 07:30;79,2
2018-11-08 07:45;86,1
2018-11-08 08:00;93,3
2018-11-08 08:15;92,35
2018-11-08 08:30;98,15
2018-11-08 08:45;100,75
2018-11-08 09:00;104,35
2018-11-08 09:15;112,45
2018-11-08 09:30;114,85
2018-11-08 09:45;121,95
2018-11-08 10:00;130,8
2018-11-08 10:15;132,2
2018-11-08 10:30;133,3
2018-11-08 10:45;135,1
2018-11-08 11:00;139,9
2018-11-08 11:15;147,35
2018-11-08 11:30;152,05
2018-11-08 11:45;149,2
2018-11-08 12:00;145,5
2018-11-08 12:15;146,35
2018-11-08 12:30;148,45
2018-11-08 12:45;149,5
2018-11-08 13:00;148,4
2018-11-08 13:15;151,35
2018-11-08 13:30;151,75
2018-11-08 13:45;150,05
2018-11-08 14:00;142,15
2018-11-08 14:15;147,05
2018-11-08 14:30;148,7
2018-11-08 14:45;145,9
2018-11-08 15:00;134,85
2018-11-08 15:15;135,25
2018-11-08 15:30;136,6
2018-11-08 15:45;133,2
2018-11-08 16:00;130,65
2018-11-08 16:15;124,55
2018-11-08 16:30;125,5
2018-11-08 16:45;122,05
2018-11-08 17:00;120,3
2018-11-08 17:15;113,9
2018-11-08 17:30;113,9
2018-11-08 17:45;119,6
2018-11-08 18:00;119,8
2018-11-08 18:15;122,1
2018-11-08 18:30;118,35
2018-11-08 18:45;119,1
2018-11-08 19:00;120,4
2018-11-08 19:15;116,35
2018-11-08 19:30;116,65
2018-11-08 19:45;115,75
2018-11-08 20:00;114
2018-11-08 20:15;106,85
2018-11-08 20:30;106,85
2018-11-08 20:45;113,4
2018-11-08 21:00;107,15
2018-11-08 21:15;102,05
2018-11-08 21:30;100,55
2018-11-08 21:45;100,25
2018-11-08 22:00;93,35
2018-11-08 22:15;92,65
2018-11-08 22:30;90,5
2018-11-08 22:45;84,15
2018-11-08 23:00;81,95
2018-11-08 23:15;81,9
2018-11-08 23:30;81,15
2018-11-08 23:45;85,7
2018-11-09 00:00;81,3
2018-11-09 00:15;81,75
2018-11-09 00:30;81,95
2018-11-09 00:45;82,85
2018-11-09 01:00;81,1
2018-11-09 01:15;79,95
2018-11-09 01:30;80,45
2018-11-09 01:45;80,2
2018-11-09 02:00;78,9
2018-11-09 02:15;78,75
2018-11-09 02:30;79,8
2018-11-09 02:45;81,15
2018-11-09 03:00;78,9
2018-11-09 03:15;80,2
2018-11-09 03:30;81,9
2018-11-09 03:45;82
2018-11-09 04:00;81,2
2018-11-09 04:15;79
2018-11-09 04:30;79,35
2018-11-09 04:45;82,1
2018-11-09 05:00;78,6
2018-11-09 05:15;76,55
2018-11-09 05:30;77
2018-11-09 05:45;76,7
2018-11-09 06:00;76,2
2018-11-09 06:15;77,6
2018-11-09 06:30;75,1
2018-11-09 06:45;74,15
2018-11-09 07:00;75,7
2018-11-09 07:15;77,3
2018-11-09 07:30;81,25
2018-11-09 07:45;82,6
2018-11-09 08:00;87,95
2018-11-09 08:15;93,9
2018-11-09 08:30;101,05
2018-11-09 08:45;107,85
2018-11-09 09:00;116,1
2018-11-09 09:15;125,15
2018-11-09 09:30;132
2018-11-09 09:45;137,75
2018-11-09 10:00;138,3
2018-11-09 10:15;136
2018-11-09 10:30;140,15
2018-11-09 10:45;144,7
2018-11-09 11:00;144,9
2018-11-09 11:15;148,6
2018-11-09 11:30;151,9
2018-11-09 11:45;156,2
2018-11-09 12:00;157,5
2018-11-09 12:15;157,15
2018-11-09 12:30;159,25
2018-11-09 12:45;157
2018-11-09 13:00;156,4
2018-11-09 13:15;155,65
2018-11-09 13:30;153,8
2018-11-09 13:45;153,6
2018-11-09 14:00;146,85
2018-11-09 14:15;151,8
2018-11-09 14:30;148,05
2018-11-09 14:45;144,25
2018-11-09 15:00;141,3
2018-11-09 15:15;138,9
2018-11-09 15:30;137,4
2018-11-09 15:45;131,5
2018-11-09 16:00;125,25
2018-11-09 16:15;124,95
2018-11-09 16:30;122,8
2018-11-09 16:45;119,75
2018-11-09 17:00;116,55
2018-11-09 17:15;117,35
2018-11-09 17:30;116,65
2018-11-09 17:45;123,4
2018-11-09 18:00;125,4
2018-11-09 18:15;121,6
2018-11-09 18:30;123,8
2018-11-09 18:45;125,35
2018-11-09 19:00;127,15
2018-11-09 19:15;124,6
2018-11-09 19:30;125,35
2018-11-09 19:45;124,6
2018-11-09 20:00;111,7
2018-11-09 20:15;105,95
2018-11-09 20:30;102,45
2018-11-09 20:45;100,15
2018-11-09 21:00;97,05
2018-11-09 21:15;91,85
2018-11-09 21:30;93,2
2018-11-09 21:45;93,25
2018-11-09 22:00;86,5
2018-11-09 22:15;85,25
2018-11-09 22:30;84,25
2018-11-09 22:45;84,55
2018-11-09 23:00;84,05
2018-11-09 23:15;84,05
2018-11-09 23:30;83,15
2018-11-09 23:45;87,55
2018-11-10 00:00;81,9
2018-11-10 00:15;83
2018-11-10 00:30;81,45
2018-11-10 00:45;79,85
2018-11-10 01:00;82,75
2018-11-10 01:15;81,5
2018-11-10 01:30;80,4
2018-11-10 01:45;79,5
2018-11-10 02:00;79,9
2018-11-10 02:15;83,05
2018-11-10 02:30;81,15
2018-11-10 02:45;81,25
2018-11-10 03:00;80,1
2018-11-10 03:15;81,5
2018-11-10 03:30;82,4
2018-11-10 03:45;83,05
2018-11-10 04:00;82,2
2018-11-10 04:15;83,2
2018-11-10 04:30;82,05
2018-11-10 04:45;83,1
2018-11-10 05:00;80,65
2018-11-10 05:15;79,15
2018-11-10 05:30;79,15
2018-11-10 05:45;79,45
2018-11-10 06:00;81,4
2018-11-10 06:15;79,5
2018-11-10 06:30;78,25
2018-11-10 06:45;77,65
2018-11-10 07:00;76,8
2018-11-10 07:15;74,3
2018-11-10 07:30;75,35
2018-11-10 07:45;75,65
2018-11-10 08:00;82,6
2018-11-10 08:15;83,85
2018-11-10 08:30;85,55
2018-11-10 08:45;85,95
2018-11-10 09:00;86,85
2018-11-10 09:15;89,7
2018-11-10 09:30;78,9
2018-11-10 09:45;57
2018-11-10 10:00;59,35
2018-11-10 10:15;54,25
2018-11-10 10:30;52,65
2018-11-10 10:45;54,8
2018-11-10 11:00;50,9
2018-11-10 11:15;54,75
2018-11-10 11:30;51,95
2018-11-10 11:45;52,6
2018-11-10 12:00;71,8
2018-11-10 12:15;93,45
2018-11-10 12:30;95,4
2018-11-10 12:45;122,65
2018-11-10 13:00;144
2018-11-10 13:15;100,7
2018-11-10 13:30;107,05
2018-11-10 13:45;103,4
2018-11-10 14:00;103,15
2018-11-10 14:15;112,2
2018-11-10 14:30;99,4
2018-11-10 14:45;113,55
2018-11-10 15:00;110,4
2018-11-10 15:15;126,8
2018-11-10 15:30;120,1
2018-11-10 15:45;123,1
2018-11-10 16:00;117,35
2018-11-10 16:15;114,15
2018-11-10 16:30;116,85
2018-11-10 16:45;110,75
2018-11-10 17:00;119,6
2018-11-10 17:15;110,4
2018-11-10 17:30;120,35
2018-11-10 17:45;113,95
2018-11-10 18:00;127,55
2018-11-10 18:15;119,9
2018-11-10 18:30;136,8
2018-11-10 18:45;124,55
2018-11-10 19:00;137,4
2018-11-10 19:15;124,4
2018-11-10 19:30;126,15
2018-11-10 19:45;121,55
2018-11-10 20:00;125,1
2018-11-10 20:15;120,5
2018-11-10 20:30;120,2
2018-11-10 20:45;117,3
2018-11-10 21:00;115,65
2018-11-10 21:15;114
2018-11-10 21:30;109,15
2018-11-10 21:45;105,9
2018-11-10 22:00;101,4
2018-11-10 22:15;101,15
2018-11-10 22:30;102,9
2018-11-10 22:45;105,55
2018-11-10 23:00;105,8
2018-11-10 23:15;106,15
2018-11-10 23:30;105,55
2018-11-10 23:45;109,9
2018-11-11 00:00;105,75
2018-11-11 00:15;105,7
2018-11-11 00:30;103,1
2018-11-11 00:45;96,9
2018-11-11 01:00;98,05
2018-11-11 01:15;99,15
2018-11-11 01:30;99,75
2018-11-11 01:45;100,95
2018-11-11 02:00;98,25
2018-11-11 02:15;97,9
2018-11-11 02:30;98,25
2018-11-11 02:45;99,75
2018-11-11 03:00;98,15
2018-11-11 03:15;0
2018-11-11 03:30;0
2018-11-11 03:45;0
2018-11-11 04:00;0
2018-11-11 04:15;0
2018-11-11 04:30;0
2018-11-11 04:45;0
2018-11-11 05:00;0
2018-11-11 05:15;0
2018-11-11 05:30;0
2018-11-11 05:45;0
2018-11-11 06:00;0
2018-11-11 06:15;0
2018-11-11 06:30;0
2018-11-11 06:45;0
2018-11-11 07:00;0
2018-11-11 07:15;0
2018-11-11 07:30;0
2018-11-11 07:45;0
2018-11-11 08:00;0
2018-11-11 08:15;0
2018-11-11 08:30;0
2018-11-11 08:45;0
2018-11-11 09:00;0
2018-11-11 09:15;0
2018-11-11 09:30;0
2018-11-11 09:45;0
2018-11-11 10:00;0
2018-11-11 10:15;0
2018-11-11 10:30;0
2018-11-11 10:45;0
2018-11-11 11:00;0
2018-11-11 11:15;0
2018-11-11 11:30;0
2018-11-11 11:45;0
2018-11-11 12:00;0
2018-11-11 12:15;0
2018-11-11 12:30;0
2018-11-11 12:45;0
2018-11-11 13:00;0
2018-11-11 13:15;0
2018-11-11 13:30;0
2018-11-11 13:45;0
2018-11-11 14:00;0
2018-11-11 14:15;0
2018-11-11 14:30;0
2018-11-11 14:45;0
2018-11-11 15:00;0
2018-11-11 15:15;0
2018-11-11 15:30;0
2018-11-11 15:45;0
2018-11-11 16:00;0
2018-11-11 16:15;0
2018-11-11 16:30;0
2018-11-11 16:45;0
2018-11-11 17:00;0
2018-11-11 17:15;0
2018-11-11 17:30;0
2018-11-11 17:45;0
2018-11-11 18:00;0
2018-11-11 18:15;0
2018-11-11 18:30;0
2018-11-11 18:45;0
2018-11-11 19:00;0
2018-11-11 19:15;0
2018-11-11 19:30;0
2018-11-11 19:45;0
2018-11-11 20:00;0
2018-11-11 20:15;0
2018-11-11 20:30;0
2018-11-11 20:45;0
2018-11-11 21:00;0
2018-11-11 21:15;0
2018-11-11 21:30;0
2018-11-11 21:45;0
2018-11-11 22:00;0
2018-11-11 22:15;0
2018-11-11 22:30;0
2018-11-11 22:45;0
2018-11-11 23:00;0
2018-11-11 23:15;0
2018-11-11 23:30;0
2018-11-11 23:45;0

